Wind_Speed
22 20 19 17 14 10 8 7 6 5 3 1 1 1 2 4 4 5 5 6 6 7 6 6 6 6 6 6 7 8 9 10 13 15 17 18 18 18 18 18 19 19 19 18
21 19 18 16 14 10 7 7 5 4 3 2 1 2 3 4 4 5 6 6 6 6 6 6 7 7 6 6 7 8 9 10 13 15 17 18 17 17 18 18 18 18 19 18
21 20 18 16 13 9 8 6 6 4 3 2 1 1 2 3 4 5 6 7 8 8 6 6 7 7 6 6 7 7 8 10 12 14 16 17 17 16 17 17 18 18 18 17
20 18 16 13 11 10 8 7 5 4 3 2 1 2 3 4 5 6 7 8 9 9 7 6 7 7 7 6 7 7 8 9 12 14 15 16 16 16 17 17 17 17 17 17
18 16 13 12 10 9 9 7 5 3 2 1 2 3 5 6 7 8 9 10 10 9 8 6 6 7 7 7 7 7 8 9 11 13 14 15 15 15 16 17 17 17 17 16
16 15 13 11 10 8 7 5 3 1 1 1 2 4 6 7 9 10 10 11 11 10 8 7 7 7 7 7 7 7 8 9 10 12 13 14 14 15 16 16 16 16 16 16
16 14 12 11 9 7 6 4 3 2 2 2 3 5 7 9 10 11 12 12 11 10 9 8 8 8 7 7 7 8 8 8 9 11 12 13 13 14 15 16 16 15 15 15
15 14 12 10 8 5 4 3 2 2 2 3 5 7 9 10 11 13 13 12 11 10 9 9 9 8 8 8 8 8 8 8 9 10 11 12 13 13 14 15 15 14 15 15
13 12 10 9 6 4 3 1 1 2 3 5 6 8 10 12 14 15 15 13 12 11 10 9 9 9 9 9 9 9 9 9 9 9 10 11 12 12 13 14 14 14 14 14
10 9 8 7 5 3 1 1 2 3 5 6 7 10 12 15 16 16 16 15 13 11 10 10 10 10 11 11 10 10 10 10 9 9 9 10 11 11 12 13 13 13 13 13
7 6 6 5 3 1 0 2 4 5 6 7 8 9 13 15 16 17 16 15 13 11 11 11 11 12 12 12 12 12 11 11 11 10 9 10 10 10 11 11 12 12 12 12
4 3 2 2 1 0 2 3 5 6 7 9 9 9 12 14 15 16 16 15 14 12 11 11 11 12 13 14 14 14 13 13 12 11 10 10 10 10 10 10 11 11 11 11
3 1 1 1 2 3 4 5 6 7 8 9 10 10 13 14 15 16 16 16 15 14 13 12 12 13 14 15 16 16 15 15 14 13 12 11 11 10 10 9 10 10 10 10
3 3 3 3 4 5 6 7 8 9 9 9 10 11 12 14 15 15 16 17 16 15 15 14 14 14 14 15 16 17 17 17 16 15 14 13 12 11 10 9 9 9 9 9
4 4 5 5 6 6 7 8 9 9 10 10 11 12 13 14 15 15 16 16 16 16 16 16 16 16 16 17 17 18 19 19 19 18 17 16 14 13 12 11 10 9 9 8
5 5 6 7 9 9 9 9 10 11 12 12 13 14 15 15 16 16 16 17 17 17 17 18 17 17 17 18 19 19 20 20 20 20 19 18 17 16 15 13 12 10 10 9
6 7 7 8 10 10 10 12 13 13 14 15 15 16 17 18 18 18 18 18 18 18 19 19 19 19 19 19 20 20 21 21 22 22 22 21 20 19 18 16 14 12 11 10
8 9 10 10 11 12 12 13 14 16 16 16 17 18 19 20 20 20 20 20 20 20 20 21 21 21 21 21 21 21 22 23 23 23 24 23 22 22 20 19 17 16 14 13
11 12 13 13 14 14 15 16 17 18 18 18 19 20 21 22 23 23 23 23 23 23 23 23 23 23 23 23 23 23 23 24 24 25 25 25 25 24 23 22 21 19 18 16
15 15 16 17 18 18 18 19 20 21 20 21 21 22 24 25 26 26 26 26 26 26 26 26 26 26 26 26 26 25 25 25 26 27 27 27 27 26 26 25 24 22 21 19
18 19 20 21 22 22 22 23 24 25 25 25 25 26 27 28 30 30 30 30 29 29 29 29 29 30 30 30 30 29 28 27 28 28 29 29 29 28 28 28 27 26 24 23
21 22 23 24 26 26 27 27 27 28 29 30 30 31 32 33 33 34 34 34 33 33 33 33 33 33 33 34 34 33 32 31 30 30 30 31 31 31 30 30 29 28 27 26
25 26 27 28 29 30 30 31 31 32 33 34 35 36 37 38 39 39 38 38 38 38 38 37 37 37 37 38 38 37 36 35 34 33 33 33 33 33 33 32 32 31 30 29
28 30 31 32 32 33 34 35 35 36 37 38 39 40 41 43 44 44 43 43 42 42 42 42 41 41 41 41 42 41 40 40 38 37 36 36 36 35 35 35 34 33 32 31
31 33 34 35 36 37 37 38 39 40 41 42 43 44 45 46 47 47 47 47 47 46 46 46 45 44 43 44 45 45 44 43 42 40 39 39 38 38 37 37 37 36 35 34
33 35 36 37 38 40 41 42 43 44 45 47 47 48 48 49 49 50 50 51 50 50 49 49 48 47 46 46 46 47 47 47 46 44 42 42 41 41 40 40 39 38 37 36
Wind_Direction
168 173 176 181 181 184 176 176 186 188 172 173 73 12 333 338 336 327 329 331 324 314 308 301 298 301 306 309 311 317 326 335 340 342 345 345 345 346 347 349 349 350 350 349
157 160 167 174 175 174 174 178 171 156 138 118 88 355 344 348 340 332 333 333 331 324 312 300 299 301 303 308 311 316 324 333 339 342 345 346 346 347 349 350 351 352 352 352
150 154 158 164 168 162 164 153 136 126 113 121 150 1 16 3 353 346 340 336 334 332 322 305 298 299 301 306 308 312 319 330 338 342 344 347 348 349 351 352 352 353 355 355
145 150 153 154 148 144 141 139 135 127 118 125 127 51 28 22 10 351 342 336 335 336 327 309 298 297 300 304 304 307 314 326 335 341 345 349 351 352 353 353 354 354 356 357
138 142 143 140 136 134 133 140 148 139 131 91 13 11 10 13 8 358 348 338 334 334 327 311 299 295 296 300 300 303 309 322 332 340 345 350 353 355 355 354 355 356 358 359
131 134 135 137 138 135 133 138 142 146 166 275 341 354 357 359 0 357 350 342 333 329 324 309 297 292 291 293 294 298 306 318 329 338 344 348 352 355 356 357 357 359 1 2
126 127 129 129 128 129 134 142 154 182 206 274 312 327 337 345 348 347 342 338 332 325 317 303 293 288 286 288 289 295 303 313 324 334 341 346 349 353 356 357 359 0 2 3
125 125 127 127 124 127 136 146 181 209 253 298 311 312 323 331 333 333 332 330 327 323 314 300 290 286 283 284 286 290 297 307 317 327 336 342 346 351 355 356 358 360 2 4
125 124 127 129 131 140 151 164 206 258 286 298 306 307 312 318 321 323 326 325 323 319 313 304 294 286 284 284 284 285 290 298 307 318 328 335 342 348 353 356 357 359 1 3
120 124 126 128 132 142 162 272 300 300 298 298 299 301 306 310 314 319 323 325 320 314 309 304 295 287 283 282 282 281 282 289 296 306 317 325 334 342 349 354 357 359 1 4
109 117 121 119 116 117 283 295 300 304 304 302 300 303 302 303 309 314 319 320 319 314 304 297 292 285 281 278 277 278 276 279 285 293 303 313 323 332 341 349 354 358 360 2
104 113 122 131 146 270 288 297 304 309 311 308 306 305 300 304 309 313 316 317 317 313 306 293 286 282 280 276 274 274 272 273 278 283 290 299 309 319 329 338 346 352 356 358
82 79 31 355 313 315 314 312 312 310 307 304 303 303 303 306 311 315 316 315 313 309 305 299 290 283 279 276 273 271 270 268 270 274 279 287 294 303 314 324 334 342 347 351
30 14 360 342 330 326 326 321 317 316 311 307 306 304 304 307 311 314 313 312 310 306 301 298 292 287 280 276 273 270 269 266 266 268 271 277 282 287 295 306 317 327 334 341
7 357 353 343 334 335 334 327 321 317 313 307 308 307 308 309 310 311 311 310 309 306 302 298 294 290 285 280 276 271 269 266 264 265 266 269 274 277 281 288 298 308 318 326
348 344 337 331 325 328 327 319 315 314 312 312 311 311 312 312 312 312 311 308 306 304 301 297 293 291 287 282 279 274 269 266 265 264 264 264 267 270 272 276 282 289 299 306
329 324 321 319 317 318 316 312 311 310 311 312 312 312 310 309 310 310 308 305 302 299 298 296 293 291 287 284 280 277 272 268 266 264 263 263 263 265 266 268 271 276 281 288
320 317 315 313 313 312 312 311 310 310 311 312 311 310 308 307 307 306 304 302 300 298 296 294 292 290 287 283 281 277 273 269 267 264 263 262 261 261 262 263 264 267 270 275
314 312 311 311 310 309 309 310 311 312 313 312 309 306 304 303 302 302 302 300 298 297 294 291 289 287 286 284 281 278 274 270 267 265 263 262 260 259 259 259 259 261 263 266
307 308 309 309 309 310 310 312 312 310 311 311 307 303 301 300 299 300 299 298 296 294 293 291 288 286 284 283 281 279 275 271 267 265 263 262 261 259 258 258 258 258 259 261
303 304 306 307 308 309 310 310 310 309 309 307 304 303 301 299 297 296 295 293 291 289 288 288 286 284 282 281 279 278 275 271 267 265 263 262 261 259 258 257 256 256 257 258
300 301 301 303 304 307 308 308 307 306 306 306 304 302 301 298 296 294 293 290 288 286 285 284 283 282 280 278 277 275 274 271 268 265 263 261 260 259 258 256 256 255 255 256
298 299 300 301 302 303 304 303 303 303 303 303 302 301 300 299 297 295 293 291 288 286 284 282 281 280 278 276 274 273 272 270 268 265 263 261 259 258 258 257 255 255 254 254
295 296 297 298 300 300 300 301 301 301 301 301 300 299 299 297 296 295 293 291 288 286 284 282 280 278 276 274 273 272 270 269 267 264 262 261 259 257 257 256 255 254 254 253
293 294 294 296 297 297 298 299 299 300 300 299 298 298 297 296 295 294 293 291 288 286 283 281 279 277 274 272 271 270 268 267 266 264 262 260 258 257 256 255 255 254 253 252
291 292 293 295 295 295 297 297 298 298 298 298 298 297 297 295 294 293 291 290 288 286 283 281 279 277 274 271 269 268 267 265 264 263 261 260 257 256 255 254 254 253 252 251
Height
5816 5823 5828 5832 5836 5839 5842 5845 5847 5849 5850 5852 5852 5853 5853 5853 5852 5852 5851 5851 5851 5850 5849 5848 5847 5846 5846 5845 5844 5843 5842 5840 5838 5836 5832 5828 5825 5821 5818 5814 5810 5806 5802 5797
5819 5824 5828 5832 5835 5839 5842 5845 5847 5848 5850 5851 5851 5852 5852 5852 5851 5850 5850 5849 5849 5848 5847 5846 5845 5844 5844 5843 5842 5841 5840 5839 5837 5834 5831 5827 5823 5820 5816 5812 5809 5805 5800 5796
5820 5825 5829 5833 5836 5839 5842 5845 5847 5848 5849 5850 5851 5851 5851 5851 5850 5849 5847 5847 5846 5845 5845 5844 5843 5842 5842 5841 5841 5840 5839 5838 5835 5833 5829 5826 5822 5819 5815 5811 5808 5804 5800 5796
5822 5826 5830 5834 5837 5839 5842 5844 5846 5847 5849 5849 5850 5850 5850 5849 5848 5847 5846 5845 5844 5843 5843 5842 5841 5841 5840 5840 5839 5838 5837 5836 5834 5832 5828 5825 5821 5818 5814 5811 5807 5803 5799 5796
5825 5828 5832 5835 5838 5841 5843 5844 5846 5847 5848 5849 5849 5849 5849 5847 5847 5846 5844 5843 5842 5841 5841 5840 5839 5839 5838 5838 5838 5837 5836 5834 5833 5830 5827 5824 5820 5817 5814 5810 5806 5803 5799 5795
5828 5831 5834 5837 5839 5841 5843 5845 5846 5847 5848 5848 5848 5848 5847 5846 5845 5844 5843 5842 5841 5840 5839 5838 5837 5837 5836 5836 5836 5835 5834 5833 5831 5829 5826 5823 5820 5817 5813 5810 5806 5802 5799 5795
5830 5833 5835 5838 5840 5841 5843 5845 5847 5847 5847 5847 5846 5846 5846 5844 5844 5843 5841 5840 5839 5838 5837 5836 5835 5835 5834 5834 5834 5833 5832 5831 5829 5827 5825 5822 5819 5816 5813 5809 5806 5802 5799 5796
5832 5835 5836 5838 5840 5841 5843 5845 5847 5847 5846 5845 5845 5844 5844 5843 5841 5840 5839 5838 5837 5836 5835 5834 5833 5832 5832 5832 5831 5831 5830 5829 5828 5826 5824 5821 5819 5816 5812 5809 5806 5802 5799 5796
5834 5836 5837 5838 5840 5841 5842 5843 5844 5845 5844 5844 5843 5842 5842 5840 5839 5838 5837 5836 5835 5834 5833 5832 5831 5830 5829 5829 5829 5828 5828 5827 5826 5824 5822 5820 5818 5815 5812 5809 5806 5802 5799 5796
5835 5837 5838 5839 5840 5841 5842 5842 5843 5843 5843 5842 5842 5840 5840 5838 5836 5835 5834 5833 5832 5831 5830 5829 5828 5827 5827 5826 5826 5826 5825 5825 5824 5822 5821 5819 5816 5814 5811 5808 5805 5802 5800 5797
5837 5838 5839 5839 5840 5840 5841 5841 5841 5841 5841 5840 5839 5841 5837 5835 5834 5832 5831 5830 5829 5828 5827 5826 5826 5825 5824 5823 5823 5823 5822 5822 5821 5820 5819 5817 5815 5813 5810 5808 5805 5802 5800 5797
5837 5838 5839 5839 5840 5840 5840 5840 5839 5839 5838 5837 5837 5839 5834 5832 5831 5830 5829 5827 5826 5825 5824 5823 5823 5822 5821 5820 5819 5819 5819 5819 5818 5817 5816 5815 5813 5811 5809 5807 5804 5802 5799 5797
5837 5838 5839 5839 5841 5840 5838 5838 5837 5837 5836 5835 5834 5836 5831 5830 5828 5827 5825 5824 5823 5821 5820 5819 5819 5818 5817 5816 5816 5815 5815 5815 5814 5814 5813 5812 5810 5809 5807 5805 5803 5801 5799 5797
5837 5837 5838 5839 5838 5837 5837 5836 5835 5834 5833 5832 5831 5830 5829 5827 5825 5824 5822 5821 5819 5818 5816 5816 5815 5814 5813 5812 5811 5811 5811 5810 5810 5810 5810 5809 5808 5806 5805 5803 5801 5800 5798 5796
5837 5837 5836 5836 5835 5835 5834 5833 5832 5831 5830 5829 5828 5827 5826 5824 5823 5821 5819 5817 5816 5814 5813 5812 5811 5810 5809 5808 5807 5806 5806 5806 5806 5805 5805 5805 5804 5803 5802 5800 5799 5797 5796 5794
5835 5835 5835 5834 5833 5832 5832 5831 5829 5828 5827 5826 5824 5823 5822 5820 5819 5817 5816 5814 5812 5810 5809 5807 5806 5805 5804 5803 5802 5802 5801 5800 5800 5800 5800 5800 5800 5799 5798 5797 5796 5795 5794 5792
5834 5834 5833 5833 5831 5830 5830 5828 5826 5825 5824 5823 5821 5820 5818 5816 5815 5813 5812 5810 5808 5806 5805 5803 5801 5800 5799 5798 5797 5796 5795 5795 5795 5794 5794 5794 5794 5794 5793 5793 5792 5791 5790 5789
5831 5831 5830 5829 5829 5828 5829 5825 5823 5821 5820 5819 5817 5815 5814 5812 5810 5809 5807 5805 5803 5802 5800 5798 5796 5795 5793 5792 5791 5790 5790 5789 5789 5788 5788 5788 5788 5788 5788 5788 5787 5787 5786 5786
5828 5827 5826 5825 5824 5824 5822 5820 5818 5817 5815 5814 5813 5811 5809 5807 5805 5803 5801 5799 5798 5796 5794 5792 5791 5789 5787 5786 5785 5784 5783 5782 5782 5781 5781 5781 5781 5781 5782 5782 5781 5781 5781 5781
5823 5822 5822 5820 5818 5818 5818 5815 5813 5812 5810 5809 5806 5805 5802 5800 5798 5797 5795 5793 5791 5789 5787 5785 5783 5782 5780 5779 5777 5777 5776 5775 5774 5774 5774 5773 5773 5774 5774 5774 5775 5775 5775 5775
5818 5817 5815 5814 5811 5811 5810 5808 5807 5805 5804 5802 5799 5797 5795 5792 5791 5789 5786 5784 5782 5780 5779 5777 5775 5773 5771 5770 5769 5768 5768 5767 5766 5766 5765 5765 5765 5766 5766 5767 5767 5767 5768 5768
5812 5810 5809 5807 5805 5806 5803 5800 5799 5797 5795 5793 5790 5788 5786 5784 5781 5779 5776 5774 5772 5771 5769 5767 5766 5764 5762 5760 5759 5758 5758 5758 5757 5757 5757 5757 5756 5757 5757 5758 5759 5759 5760 5761
5804 5803 5801 5800 5800 5796 5794 5792 5790 5788 5786 5783 5781 5778 5775 5772 5770 5768 5765 5763 5761 5759 5757 5756 5754 5753 5751 5749 5748 5747 5747 5746 5747 5747 5747 5747 5747 5747 5748 5748 5749 5750 5751 5752
5796 5794 5792 5790 5789 5786 5784 5782 5780 5778 5775 5773 5770 5767 5764 5761 5757 5755 5752 5750 5748 5746 5744 5742 5741 5740 5739 5736 5735 5734 5734 5734 5734 5735 5735 5736 5736 5737 5737 5738 5739 5740 5741 5742
5788 5785 5783 5781 5779 5776 5774 5771 5769 5767 5764 5761 5758 5755 5751 5748 5744 5741 5738 5735 5733 5731 5729 5727 5726 5725 5724 5723 5721 5720 5719 5720 5720 5722 5723 5723 5724 5725 5726 5727 5728 5730 5731 5732
5778 5775 5773 5772 5769 5765 5764 5760 5757 5754 5751 5748 5745 5741 5737 5733 5730 5726 5723 5720 5717 5714 5712 5711 5709 5708 5707 5707 5706 5705 5704 5704 5705 5707 5708 5709 5711 5712 5713 5715 5716 5718 5720 5721